TimeCDT,TemperatureF,Dew PointF,Humidity,Sea Level PressureIn,VisibilityMPH,Wind Direction,Wind SpeedMPH,Gust SpeedMPH,PrecipitationIn,Events,Conditions,WindDirDegrees,DateUTC
12:52 AM,43.0,39.9,89,29.97,7.0,Calm,Calm,-,N/A,,Overcast,0,2013-05-11 05:52:00
1:52 AM,44.1,42.1,93,29.96,5.0,West,3.5,-,N/A,,Overcast,270,2013-05-11 06:52:00
2:52 AM,44.1,43.0,96,29.94,4.0,SSW,4.6,-,N/A,,Overcast,210,2013-05-11 07:52:00
3:52 AM,44.1,43.0,96,29.94,4.0,South,6.9,-,N/A,,Overcast,190,2013-05-11 08:52:00
4:38 AM,42.8,41.0,93,29.92,3.0,SSW,6.9,-,N/A,,Scattered Clouds,210,2013-05-11 09:38:00
4:52 AM,41.0,41.0,100,29.93,2.5,SSW,5.8,-,N/A,,Partly Cloudy,210,2013-05-11 09:52:00
5:44 AM,42.8,41.0,93,29.90,1.8,SSW,6.9,-,N/A,,Clear,210,2013-05-11 10:44:00
5:52 AM,42.1,41.0,96,29.92,2.0,SSW,9.2,-,N/A,,Clear,210,2013-05-11 10:52:00
6:31 AM,44.6,42.8,93,29.89,3.0,SW,6.9,-,N/A,,Clear,220,2013-05-11 11:31:00
6:52 AM,45.0,43.0,93,29.91,3.0,SW,5.8,-,N/A,,Clear,220,2013-05-11 11:52:00
7:52 AM,48.9,45.0,86,29.87,6.0,SW,9.2,-,N/A,,Mostly Cloudy,220,2013-05-11 12:52:00
8:52 AM,53.1,46.9,80,29.84,7.0,SSW,13.8,-,N/A,,Scattered Clouds,210,2013-05-11 13:52:00
9:52 AM,55.9,48.9,77,29.81,8.0,SW,16.1,26.5,N/A,,Overcast,220,2013-05-11 14:52:00
9:59 AM,55.4,48.2,77,29.80,8.0,SSW,16.1,24.2,N/A,,Overcast,210,2013-05-11 14:59:00
10:52 AM,53.1,46.9,80,29.82,7.0,SW,10.4,21.9,N/A,,Overcast,230,2013-05-11 15:52:00
11:52 AM,52.0,44.1,74,29.84,9.0,WNW,13.8,35.7,N/A,,Overcast,290,2013-05-11 16:52:00
12:52 PM,48.9,37.9,66,29.89,10.0,WNW,13.8,28.8,N/A,,Overcast,300,2013-05-11 17:52:00
1:13 PM,53.6,37.4,54,29.87,10.0,NNW,11.5,25.3,N/A,,Mostly Cloudy,330,2013-05-11 18:13:00
1:52 PM,54.0,35.1,49,29.88,10.0,NW,13.8,26.5,N/A,,Mostly Cloudy,310,2013-05-11 18:52:00
2:52 PM,55.0,28.9,37,29.91,10.0,WNW,15.0,26.5,N/A,,Scattered Clouds,300,2013-05-11 19:52:00
3:52 PM,52.0,28.9,41,29.93,10.0,WNW,13.8,24.2,N/A,,Overcast,300,2013-05-11 20:52:00
4:52 PM,52.0,28.0,40,29.94,10.0,WNW,15.0,23.0,N/A,,Mostly Cloudy,300,2013-05-11 21:52:00
5:52 PM,51.1,30.0,44,29.96,10.0,Variable,4.6,-,0.00,,Scattered Clouds,0,2013-05-11 22:52:00
6:52 PM,50.0,28.9,44,29.97,10.0,Variable,6.9,21.9,0.00,,Partly Cloudy,0,2013-05-11 23:52:00
7:52 PM,48.0,26.1,42,29.99,10.0,WNW,9.2,21.9,N/A,,Partly Cloudy,300,2013-05-12 00:52:00
8:52 PM,46.0,26.1,46,30.00,10.0,WNW,6.9,21.9,N/A,,Clear,300,2013-05-12 01:52:00
9:52 PM,44.1,27.0,51,30.01,10.0,WNW,6.9,-,N/A,,Clear,290,2013-05-12 02:52:00
10:52 PM,43.0,27.0,53,30.02,10.0,WNW,5.8,-,N/A,,Clear,290,2013-05-12 03:52:00
11:52 PM,42.1,27.0,55,30.03,10.0,West,6.9,-,N/A,,Clear,280,2013-05-12 04:52:00